EW9366 Weather Reports


Display with metric or nautical units.
time (UTC)temp
F
wind
direction
speed
MPH
gust
MPH
rain 1hr
in
rain 24hr
in
rain mn
in
humidity
%
barometer
mb
20260901235516 98 131 0.0 3.0 0.00 0.00 0.00 38 1014.9
20260901235012 97 115 0.0 3.0 0.00 0.00 0.00 38 1014.9
20260901234956 97 17 0.0 3.0 0.00 0.00 0.00 39 1014.9
20260901234004 97 88 1.0 4.0 0.00 0.00 0.00 39 1015.0
20260901233501 97 97 2.0 4.0 0.00 0.00 0.00 39 1015.0
20260901232943 97 96 1.0 4.0 0.00 0.00 0.00 38 1015.1
20260901232440 97 84 1.0 3.0 0.00 0.00 0.00 39 1015.0
20260901231942 96 341 2.0 4.0 0.00 0.00 0.00 41 1015.1
20260901231415 96 59 2.0 6.0 0.00 0.00 0.00 41 1015.1
20260901230913 96 92 1.0 6.0 0.00 0.00 0.00 41 1015.1
20260901230349 96 65 1.0 4.0 0.00 0.00 0.00 42 1015.2
20260901225845 96 85 1.0 4.0 0.00 0.00 0.00 42 1015.2
20260901225321 96 97 1.0 4.0 0.00 0.00 0.00 41 1015.2
20260901224753 96 37 2.0 5.0 0.00 0.00 0.00 41 1015.2
20260901224249 97 44 1.0 5.0 0.00 0.00 0.00 41 1015.2
20260901223722 97 59 1.0 4.0 0.00 0.00 0.00 41 1015.2
20260901223152 98 122 1.0 4.0 0.00 0.00 0.00 40 1015.2
20260901222627 98 40 1.0 5.0 0.00 0.00 0.00 41 1015.2
20260901222107 98 127 1.0 5.0 0.00 0.00 0.00 39 1015.1
20260901221531 98 14 0.0 4.0 0.00 0.00 0.00 40 1015.2
20260901221004 98 82 0.0 3.0 0.00 0.00 0.00 39 1015.2
20260901220443 97 196 0.0 3.0 0.00 0.00 0.00 41 1015.2
20260901215914 97 132 0.0 2.0 0.00 0.00 0.00 41 1015.2
20260901215413 98 244 0.0 2.0 0.00 0.00 0.00 40 1015.2
20260901214845 98 136 0.0 3.0 0.00 0.00 0.00 39 1015.1
20260901214340 99 145 1.0 4.0 0.00 0.00 0.00 38 1015.2
20260901213816 100 157 0.0 4.0 0.00 0.00 0.00 38 1015.2
20260901213251 100 150 1.0 6.0 0.00 0.00 0.00 38 1015.2
20260901212723 100 120 1.0 6.0 0.00 0.00 0.00 39 1015.3
20260901212629 101 129 0.0 3.0 0.00 0.00 0.00 38 1015.3
20260901211651 101 139 1.0 3.0 0.00 0.00 0.00 38 1015.2
20260901211124 101 201 1.0 4.0 0.00 0.00 0.00 39 1015.3
20260901210622 101 35 2.0 4.0 0.00 0.00 0.00 39 1015.4
20260901210121 101 139 1.0 6.0 0.00 0.00 0.00 39 1015.4
20260901205601 101 217 1.0 6.0 0.00 0.00 0.00 40 1015.5
20260901205023 100 139 1.0 6.0 0.00 0.00 0.00 40 1015.5
20260901205006 100 145 2.0 6.0 0.00 0.00 0.00 41 1015.7
20260901204008 99 97 3.0 6.0 0.00 0.00 0.00 40 1015.8
20260901203956 100 25 2.0 6.0 0.00 0.00 0.00 39 1015.9
20260901203445 101 106 1.0 4.0 0.00 0.00 0.00 40 1015.9
20260901202459 101 85 0.0 4.0 0.00 0.00 0.00 40 1016.0
20260901201957 101 142 0.0 4.0 0.00 0.00 0.00 39 1016.1
20260901201431 101 148 1.0 6.0 0.00 0.00 0.00 39 1016.2
20260901200928 101 269 2.0 6.0 0.00 0.00 0.00 38 1016.2
20260901200428 101 130 1.0 4.0 0.00 0.00 0.00 40 1016.3
20260901195928 101 127 1.0 4.0 0.00 0.00 0.00 39 1016.3
20260901195431 101 202 1.0 3.0 0.00 0.00 0.00 40 1016.3
20260901194925 100 181 1.0 4.0 0.00 0.00 0.00 40 1016.4
20260901194423 100 193 1.0 4.0 0.00 0.00 0.00 40 1016.3
20260901193904 99 69 2.0 4.0 0.00 0.00 0.00 43 1016.3
20260901193841 99 111 3.0 6.0 0.00 0.00 0.00 42 1016.4
20260901192904 100 65 2.0 6.0 0.00 0.00 0.00 40 1016.5
20260901192407 101 242 1.0 3.0 0.00 0.00 0.00 40 1016.7
20260901191841 101 317 1.0 5.0 0.00 0.00 0.00 40 1016.7
20260901191310 102 15 2.0 5.0 0.00 0.00 0.00 39 1016.8
20260901190741 103 76 1.0 5.0 0.00 0.00 0.00 40 1016.7
20260901190216 102 140 1.0 4.0 0.00 0.00 0.00 40 1016.8
20260901185714 101 144 1.0 7.0 0.00 0.00 0.00 41 1016.9
20260901185212 100 113 2.0 7.0 0.00 0.00 0.00 46 1016.9
20260901184646 98 267 3.0 9.0 0.00 0.00 0.00 44 1017.0
20260901184138 98 246 4.0 9.0 0.00 0.00 0.00 43 1017.1
20260901183640 98 260 2.0 9.0 0.00 0.00 0.00 44 1017.1
20260901183137 98 248 2.0 9.0 0.00 0.00 0.00 45 1017.1
20260901182641 97 262 2.0 5.0 0.00 0.00 0.00 45 1017.3
20260901182545 97 247 1.0 5.0 0.00 0.00 0.00 44 1017.5
20260901181609 98 273 1.0 7.0 0.00 0.00 0.00 44 1017.6
20260901181043 98 243 1.0 7.0 0.00 0.00 0.00 43 1017.7
20260901180537 98 114 0.0 2.0 0.00 0.00 0.00 44 1017.8
20260901180034 98 205 1.0 8.0 0.00 0.00 0.00 45 1017.9
20260901180020 99 139 1.0 8.0 0.00 0.00 0.00 44 1018.0
20260901175034 99 191 2.0 6.0 0.00 0.00 0.00 44 1018.0
20260901174533 100 257 1.0 5.0 0.00 0.00 0.00 41 1018.1
20260901174007 99 255 1.0 5.0 0.00 0.00 0.00 44 1018.3
20260901173949 98 259 1.0 4.0 0.00 0.00 0.00 45 1018.2
20260901173446 99 250 1.0 6.0 0.00 0.00 0.00 42 1018.2
20260901172446 99 53 2.0 6.0 0.00 0.00 0.00 45 1018.3
20260901171949 99 95 2.0 6.0 0.00 0.00 0.00 46 1018.3
20260901171904 98 225 2.0 9.0 0.00 0.00 0.00 46 1018.4
20260901170854 98 145 3.0 9.0 0.00 0.00 0.00 45 1018.5
20260901170326 98 193 3.0 9.0 0.00 0.00 0.00 45 1018.5
20260901170313 100 214 1.0 9.0 0.00 0.00 0.00 43 1018.5
20260901165324 100 119 1.0 6.0 0.00 0.00 0.00 45 1018.6
20260901164821 99 200 2.0 11.0 0.00 0.00 0.00 47 1018.7
20260901164313 99 143 2.0 11.0 0.00 0.00 0.00 45 1018.8
20260901163745 100 208 1.0 4.0 0.00 0.00 0.00 44 1018.9
20260901163219 100 169 1.0 4.0 0.00 0.00 0.00 46 1019.0
20260901163141 100 169 1.0 5.0 0.00 0.00 0.00 44 1018.9
20260901162125 100 259 1.0 5.0 0.00 0.00 0.00 49 1018.9
20260901161622 99 132 1.0 4.0 0.00 0.00 0.00 45 1018.9
20260901161057 100 231 1.0 4.0 0.00 0.00 0.00 48 1018.9
20260901160531 99 214 1.0 7.0 0.00 0.00 0.00 48 1019.0
20260901160022 99 269 1.0 7.0 0.00 0.00 0.00 46 1019.0
20260901155520 99 245 1.0 6.0 0.00 0.00 0.00 46 1019.1
20260901155016 99 214 1.0 2.0 0.00 0.00 0.00 46 1019.1
20260901155000 99 199 1.0 3.0 0.00 0.00 0.00 47 1019.1
20260901154010 98 205 0.0 2.0 0.00 0.00 0.00 48 1019.2
20260901153956 98 197 1.0 4.0 0.00 0.00 0.00 51 1019.2
20260901152942 97 259 1.0 5.0 0.00 0.00 0.00 51 1019.2
20260901152438 96 143 1.0 7.0 0.00 0.00 0.00 52 1019.2
20260901151937 97 287 1.0 3.0 0.00 0.00 0.00 51 1019.2
20260901151428 96 177 1.0 2.0 0.00 0.00 0.00 52 1019.3
20260901150924 96 193 0.0 2.0 0.00 0.00 0.00 52 1019.3
20260901150425 95 150 1.0 4.0 0.00 0.00 0.00 53 1019.3
20260901150345 95 136 1.0 4.0 0.00 0.00 0.00 53 1019.2
20260901145328 94 193 1.0 3.0 0.00 0.00 0.00 54 1019.2
20260901145313 94 204 1.0 3.0 0.00 0.00 0.00 54 1019.3
20260901144323 94 193 1.0 3.0 0.00 0.00 0.00 53 1019.2
20260901144252 93 212 1.0 3.0 0.00 0.00 0.00 55 1019.2
20260901143229 93 206 1.0 3.0 0.00 0.00 0.00 56 1019.2
20260901142729 92 192 1.0 3.0 0.00 0.00 0.00 57 1019.2
20260901142224 92 147 1.0 3.0 0.00 0.00 0.00 58 1019.1
20260901141724 91 142 1.0 4.0 0.00 0.00 0.00 59 1019.2
20260901141151 90 156 1.0 4.0 0.00 0.00 0.00 59 1019.2
20260901141139 91 140 0.0 3.0 0.00 0.00 0.00 58 1019.2
20260901140607 90 188 0.0 3.0 0.00 0.00 0.00 60 1019.2
20260901140033 89 143 0.0 2.0 0.00 0.00 0.00 62 1019.2
20260901135023 88 145 0.0 2.0 0.00 0.00 0.00 62 1019.2
20260901134520 88 142 0.0 2.0 0.00 0.00 0.00 63 1019.2
20260901134453 87 157 0.0 2.0 0.00 0.00 0.00 63 1019.2
20260901133439 87 173 0.0 2.0 0.00 0.00 0.00 63 1019.2
20260901132913 87 145 0.0 2.0 0.00 0.00 0.00 63 1019.2
20260901132345 86 145 0.0 2.0 0.00 0.00 0.00 64 1019.1
20260901131813 86 155 0.0 1.0 0.00 0.00 0.00 64 1019.1
20260901131248 86 150 0.0 0.0 0.00 0.00 0.00 65 1019.0
20260901131227 85 150 0.0 0.0 0.00 0.00 0.00 67 1019.0
20260901130247 84 150 0.0 0.0 0.00 0.00 0.00 68 1018.9
20260901125719 83 147 0.0 0.0 0.00 0.00 0.00 70 1018.9
20260901125150 82 147 0.0 0.0 0.00 0.00 0.00 71 1018.9
20260901124646 81 147 0.0 0.0 0.00 0.00 0.00 74 1018.8
20260901124144 80 147 0.0 0.0 0.00 0.00 0.00 75 1018.7
20260901123617 78 147 0.0 0.0 0.00 0.00 0.00 77 1018.6
20260901123051 77 147 0.0 0.0 0.00 0.00 0.00 79 1018.5
20260901123004 76 147 0.0 0.0 0.00 0.00 0.00 79 1018.4
20260901122508 75 147 0.0 0.0 0.00 0.00 0.00 80 1018.4
20260901121452 74 147 0.0 0.0 0.00 0.00 0.00 80 1018.4
20260901120948 74 147 0.0 0.0 0.00 0.00 0.00 80 1018.2
20260901120920 74 147 0.0 0.0 0.00 0.00 0.00 79 1018.2
20260901115918 74 147 0.0 0.0 0.00 0.00 0.00 80 1018.2
20260901115902 73 147 0.0 0.0 0.00 0.00 0.00 80 1018.1
20260901114857 73 147 0.0 0.0 0.00 0.00 0.00 80 1018.0
20260901114343 73 147 0.0 0.0 0.00 0.00 0.00 80 1018.1
20260901114333 73 147 0.0 0.0 0.00 0.00 0.00 80 1018.1
20260901113322 73 147 0.0 0.0 0.00 0.00 0.00 79 1018.0
20260901112755 73 147 0.0 0.0 0.00 0.00 0.00 79 1017.9
20260901112229 73 147 0.0 0.0 0.00 0.00 0.00 79 1017.9
20260901111700 74 147 0.0 0.0 0.00 0.00 0.00 79 1018.0
20260901111201 74 147 0.0 0.0 0.00 0.00 0.00 79 1017.9
20260901110630 74 147 0.0 0.0 0.00 0.00 0.00 79 1017.8
20260901110130 74 147 0.0 0.0 0.00 0.00 0.00 78 1017.8
20260901105616 74 147 0.0 0.0 0.00 0.00 0.00 78 1017.8
20260901105120 74 147 0.0 0.0 0.00 0.00 0.00 78 1017.8
20260901104551 74 147 0.0 0.0 0.00 0.00 0.00 78 1017.7
20260901104026 74 147 0.0 0.0 0.00 0.00 0.00 78 1017.7
20260901103457 74 147 0.0 0.0 0.00 0.00 0.00 78 1017.7
20260901102956 74 147 0.0 0.0 0.00 0.00 0.00 77 1017.7
20260901102426 74 147 0.0 0.0 0.00 0.00 0.00 77 1017.5
20260901101922 74 147 0.0 0.0 0.00 0.00 0.00 77 1017.6
20260901101358 74 147 0.0 0.0 0.00 0.00 0.00 76 1017.6
20260901100856 75 147 0.0 0.0 0.00 0.00 0.00 76 1017.5
20260901100324 75 147 0.0 0.0 0.00 0.00 0.00 76 1017.5
20260901095824 75 147 0.0 0.0 0.00 0.00 0.00 75 1017.4
20260901095740 75 147 0.0 0.0 0.00 0.00 0.00 75 1017.4
20260901094751 75 147 0.0 0.0 0.00 0.00 0.00 76 1017.4
20260901094248 75 147 0.0 0.0 0.00 0.00 0.00 75 1017.4
20260901093746 75 147 0.0 0.0 0.00 0.00 0.00 75 1017.4
20260901093222 75 147 0.0 0.0 0.00 0.00 0.00 75 1017.4
20260901092721 75 147 0.0 0.0 0.00 0.00 0.00 75 1017.4
20260901092222 76 147 0.0 0.0 0.00 0.00 0.00 74 1017.3
20260901091718 76 147 0.0 0.0 0.00 0.00 0.00 74 1017.3
20260901091639 76 147 0.0 0.0 0.00 0.00 0.00 74 1017.3
20260901090627 76 147 0.0 0.0 0.00 0.00 0.00 73 1017.1
20260901090124 76 147 0.0 0.0 0.00 0.00 0.00 73 1017.1
20260901085602 76 147 0.0 0.0 0.00 0.00 0.00 73 1017.1
20260901085036 76 147 0.0 0.0 0.00 0.00 0.00 72 1017.1
20260901084526 77 147 0.0 0.0 0.00 0.00 0.00 72 1017.1
20260901084508 77 147 0.0 0.0 0.00 0.00 0.00 72 1017.1
20260901083521 77 147 0.0 0.0 0.00 0.00 0.00 71 1017.1
20260901083504 77 147 0.0 0.0 0.00 0.00 0.00 71 1017.1
20260901082931 77 147 0.0 0.0 0.00 0.00 0.00 71 1017.1
20260901081927 77 147 0.0 0.0 0.00 0.00 0.00 71 1017.0
20260901081402 77 147 0.0 0.0 0.00 0.00 0.00 71 1017.0
20260901080903 77 147 0.0 0.0 0.00 0.00 0.00 71 1017.0
20260901080337 77 147 0.0 0.0 0.00 0.00 0.00 71 1017.0
20260901075811 77 202 0.0 0.0 0.00 0.00 0.00 71 1017.0
20260901075246 77 202 0.0 0.0 0.00 0.00 0.00 71 1017.0
20260901074745 77 249 0.0 0.0 0.00 0.00 0.00 71 1017.0
20260901074241 77 249 0.0 0.0 0.00 0.00 0.00 71 1017.0
20260901074227 76 248 0.0 0.0 0.00 0.00 0.00 71 1017.1
20260901073237 76 249 0.0 0.0 0.00 0.00 0.00 71 1017.1
20260901073217 76 249 0.0 0.0 0.00 0.00 0.00 71 1017.3
20260901072713 76 249 0.0 0.0 0.00 0.00 0.00 70 1017.3
20260901071657 76 249 0.0 0.0 0.00 0.00 0.00 70 1017.0
20260901071135 76 248 0.0 0.0 0.00 0.00 0.00 70 1017.1
20260901070613 76 249 0.0 0.0 0.00 0.00 0.00 70 1017.1
20260901070114 76 249 0.0 0.0 0.00 0.00 0.00 70 1017.1
20260901065612 76 249 0.0 0.0 0.00 0.00 0.00 70 1017.0
20260901065051 76 249 0.0 0.0 0.00 0.00 0.00 70 1017.0
20260901064548 76 249 0.0 0.0 0.00 0.00 0.00 69 1017.1
20260901064049 76 248 0.0 0.0 0.00 0.00 0.00 69 1017.1
20260901063522 77 249 0.0 0.0 0.00 0.00 0.00 68 1017.0
20260901062957 77 248 0.0 0.0 0.00 0.00 0.00 68 1017.0
20260901062459 77 249 0.0 0.0 0.00 0.00 0.00 67 1017.0
20260901061958 77 248 0.0 0.0 0.00 0.00 0.00 67 1017.0
20260901061501 77 249 0.0 0.0 0.00 0.00 0.00 67 1017.1
20260901060935 77 249 0.0 0.0 0.00 0.00 0.00 67 1017.1
20260901060429 77 249 0.0 0.0 0.00 0.00 0.00 67 1017.1
20260901055928 78 249 0.0 0.0 0.00 0.00 0.00 66 1017.1
20260901055404 78 249 0.0 0.0 0.00 0.00 0.00 66 1017.1
20260901054905 78 249 0.0 0.0 0.00 0.00 0.00 65 1017.1
20260901054340 78 249 0.0 0.0 0.00 0.00 0.00 65 1017.0
20260901054255 78 253 0.0 1.0 0.00 0.00 0.00 64 1017.0
20260901053314 79 253 0.0 1.0 0.00 0.00 0.00 64 1016.9
20260901052817 79 253 0.0 1.0 0.00 0.00 0.00 63 1016.9
20260901052255 79 253 0.0 1.0 0.00 0.00 0.00 63 1016.9
20260901051731 79 281 0.0 1.0 0.00 0.00 0.00 62 1016.8
20260901051206 80 281 0.0 1.0 0.00 0.00 0.00 62 1016.7
20260901050706 80 280 0.0 1.0 0.00 0.00 0.00 61 1016.7
20260901050639 80 280 0.0 1.0 0.00 0.00 0.00 61 1016.7
20260901045654 80 39 0.0 1.0 0.00 0.00 0.00 61 1016.6
20260901045638 80 40 0.0 1.0 0.00 0.00 0.00 61 1016.7
20260901044644 80 347 0.0 1.0 0.00 0.00 0.00 61 1016.6
20260901044143 80 18 0.0 0.0 0.00 0.00 0.00 60 1016.8
20260901044053 80 18 0.0 4.0 0.00 0.00 0.00 60 1016.8
20260901043110 80 18 0.0 4.0 0.00 0.00 0.00 59 1016.7
20260901043030 80 110 0.0 0.0 0.00 0.00 0.00 59 1016.6
20260901042018 80 110 0.0 0.0 0.00 0.00 0.00 58 1016.6
20260901042001 81 110 0.0 1.0 0.00 0.00 0.00 58 1016.6
20260901040949 81 110 0.0 1.0 0.00 0.00 0.00 58 1016.7
20260901040423 81 110 0.0 1.0 0.00 0.00 0.00 58 1016.6
20260901040340 82 110 0.0 1.0 0.00 0.00 0.00 57 1016.6
20260901035354 82 110 0.0 1.0 0.00 0.00 0.00 56 1016.5
20260901034855 82 107 0.0 0.0 0.00 0.00 0.00 56 1016.7
20260901034354 82 107 0.0 0.0 0.00 0.00 0.00 55 1016.6
20260901033852 83 107 0.0 4.0 0.00 0.00 0.00 55 1016.6
20260901033354 83 107 0.0 4.0 0.00 0.00 0.00 55 1016.5
20260901032833 83 130 0.0 4.0 0.00 0.00 0.00 55 1016.6
20260901032306 83 76 0.0 1.0 0.00 0.00 0.00 55 1016.6
20260901031801 83 158 0.0 1.0 0.00 0.00 0.00 55 1016.5
20260901031237 83 261 0.0 1.0 0.00 0.00 0.00 55 1016.5
20260901030710 83 261 0.0 1.0 0.00 0.00 0.00 55 1016.5
20260901030145 83 261 0.0 1.0 0.00 0.00 0.00 55 1016.5
20260901025632 83 262 0.0 2.0 0.00 0.00 0.00 55 1016.4
20260901025130 84 262 0.0 4.0 0.00 0.00 0.00 55 1016.3
20260901024603 84 137 0.0 4.0 0.00 0.00 0.00 55 1016.3
20260901024058 84 60 0.0 1.0 0.00 0.00 0.00 54 1016.2
20260901023557 84 60 0.0 1.0 0.00 0.00 0.00 55 1016.2
20260901023515 84 141 0.0 1.0 0.00 0.00 0.00 55 1016.0
20260901022503 84 141 0.0 1.0 0.00 0.00 0.00 54 1016.0
20260901022001 84 143 0.0 1.0 0.00 0.00 0.00 54 1015.9
20260901021448 85 143 0.0 1.0 0.00 0.00 0.00 53 1015.9
20260901020949 85 143 0.0 0.0 0.00 0.00 0.00 52 1015.7
20260901020440 86 143 0.0 0.0 0.00 0.00 0.00 52 1015.7
20260901015913 86 143 0.0 1.0 0.00 0.00 0.00 51 1015.7
20260901015411 86 143 0.0 1.0 0.00 0.00 0.00 50 1015.7
20260901014907 86 152 0.0 1.0 0.00 0.00 0.00 50 1015.6
20260901014822 87 136 0.0 2.0 0.00 0.00 0.00 51 1015.6
20260901013835 87 187 0.0 2.0 0.00 0.00 0.00 50 1015.5
20260901013311 86 138 0.0 1.0 0.00 0.00 0.00 51 1015.5
20260901012751 86 152 0.0 1.0 0.00 0.00 0.00 50 1015.4
20260901012250 87 160 0.0 1.0 0.00 0.00 0.00 50 1015.5
20260901011753 87 189 0.0 0.0 0.00 0.00 0.00 50 1015.4
20260901011232 87 189 0.0 0.0 0.00 0.00 0.00 49 1015.4
20260901010730 88 189 0.0 0.0 0.00 0.00 0.00 48 1015.4
20260901010707 88 189 0.0 0.0 0.00 0.00 0.00 47 1015.3
20260901005725 89 189 0.0 0.0 0.00 0.00 0.00 46 1015.2
20260901005157 90 189 0.0 0.0 0.00 0.00 0.00 45 1015.2
20260901004633 91 189 0.0 0.0 0.00 0.00 0.00 43 1015.1
20260901004108 93 189 0.0 0.0 0.00 0.00 0.00 42 1015.1
20260901004049 94 189 0.0 0.0 0.00 0.00 0.00 40 1015.1
20260901003058 95 189 0.0 0.0 0.00 0.00 0.00 40 1015.0
20260901002528 96 189 0.0 0.0 0.00 0.00 0.00 38 1015.0
20260901002027 97 189 0.0 0.0 0.00 0.00 0.00 37 1015.0
20260901001513 98 189 0.0 0.0 0.00 0.00 0.00 37 1014.9
20260901001507 98 190 0.0 1.0 0.00 0.00 0.00 36 1015.0
20260901000511 98 190 0.0 1.0 0.00 0.00 0.00 36 1014.9
20260901000009 99 190 0.0 1.0 0.00 0.00 0.00 35 1014.9